Location: Red Deer
(52.2681°N, 113.8112°W)
Time: 20:32:36
(UTC-07:00)

X-37B - Visible Passes

Search period start: 05 December 2021 00:00
Search period end: 15 December 2021 00:00
Orbit: 330 x 341 km, 45.0° (Epoch: 20 November)

Date Brightness Start Highest point End Pass type
(mag) Time Alt. Az. Time Alt. Az. Time Alt. Az.
09 Dec 2.8 18:31:55 10° SSW 18:33:25 14° S 18:33:25 14° S visible
10 Dec 2.8 18:51:39 10° SW 18:52:57 17° SSW 18:52:57 17° SSW visible
11 Dec 2.9 17:37:21 10° SSW 17:39:02 14° SSE 17:40:42 10° SE visible
11 Dec 3.3 19:11:44 10° SW 19:12:29 14° SW 19:12:29 14° SW visible
12 Dec 2.6 17:57:04 10° SW 17:59:10 18° S 18:00:49 12° SE visible
13 Dec 2.5 18:17:10 10° SW 18:19:20 19° S 18:20:24 16° SSE visible
14 Dec 2.8 17:02:30 10° SW 17:04:36 18° S 17:06:41 10° SE visible
14 Dec 2.7 18:37:32 10° SW 18:39:30 17° S 18:40:02 16° S visible
